FW6982 Weather Reports


time (UTC)temp
C
wind
direction
speed
KPH
gust
KPH
rain 1hr
cm
rain 24hr
cm
rain mn
cm
humidity
%
barometer
mb
20260509031537 -17 0.0 0.0 0.00 0.00 0.00 1016.3
20260509030039 -17 0.0 0.0 0.00 0.00 0.00 1016.4
20260509024532 -17 0.0 0.0 0.00 0.00 0.00 1016.2
20260509023039 -17 0.0 0.0 0.00 0.00 0.00 1016.1
20260509021534 -17 0.0 0.0 0.00 0.00 0.00 1016.1
20260509020035 -17 0.0 0.0 0.00 0.00 0.00 1016.2
20260509014533 -17 0.0 0.0 0.00 0.00 0.00 1016.2
20260509013038 -17 0.0 0.0 0.00 0.00 0.00 1016.1
20260509011535 -17 0.0 0.0 0.00 0.00 0.00 1015.7
20260509010034 -17 0.0 0.0 0.00 0.00 0.00 1015.8
20260509004539 -17 0.0 0.0 0.00 0.00 0.00 1015.7
20260509003041 -17 0.0 0.0 0.00 0.00 0.00 1015.8
20260509001531 15 0 0.0 0.0 0.00 0.00 0.00 80 1015.8
20260509000040 16 0 0.0 1.6 0.00 0.00 0.00 79 1015.7
20260508234538 16 0 0.0 1.6 0.00 0.00 0.00 77 1015.6
20260508233032 17 0 0.0 1.6 0.00 0.00 0.00 75 1015.3
20260508231531 17 0 0.0 1.6 0.00 0.00 0.00 72 1015.6
20260508230033 17 0 0.0 3.2 0.00 0.00 0.00 67 1015.5
20260508224534 18 0 0.0 1.6 0.00 0.00 0.00 64 1015.5
20260508223038 18 0 0.0 6.4 0.00 0.00 0.00 60 1015.5
20260508221536 18 200 0.0 4.8 0.00 0.00 0.00 59 1015.5
20260508220032 18 193 0.0 4.8 0.00 0.00 0.00 58 1015.6
20260508214534 18 183 0.0 6.4 0.00 0.00 0.00 56 1015.4
20260508213031 18 289 1.6 8.0 0.00 0.00 0.00 57 1015.6
20260508211532 19 0 0.0 8.0 0.00 0.00 0.00 56 1015.6
20260508210036 19 157 1.6 9.7 0.00 0.00 0.00 51 1015.8
20260508204536 20 244 3.2 11.3 0.00 0.00 0.00 51 1015.5
20260508203032 20 213 1.6 12.9 0.00 0.00 0.00 52 1015.8
20260508201534 20 0 1.6 12.9 0.00 0.00 0.00 51 1015.8
20260508200034 20 237 1.6 6.4 0.00 0.00 0.00 51 1016.1
20260508194559 20 248 3.2 11.3 0.00 0.00 0.00 52 1016.2
20260508193034 20 0 4.8 14.5 0.00 0.00 0.00 48 1016.6
20260508191535 20 225 3.2 11.3 0.00 0.00 0.00 48 1016.8
20260508190032 20 189 4.8 11.3 0.00 0.00 0.00 49 1017.0
20260508184534 20 173 0.0 8.0 0.00 0.00 0.00 52 1017.2
20260508183034 20 258 1.6 11.3 0.00 0.00 0.00 50 1017.4
20260508181550 20 273 3.2 14.5 0.00 0.00 0.00 49 1017.7
20260508180036 20 201 4.8 14.5 0.00 0.00 0.00 50 1017.9
20260508174537 20 258 1.6 12.9 0.00 0.00 0.00 54 1017.8
20260508173039 20 73 4.8 11.3 0.00 0.00 0.00 51 1018.0
20260508171534 19 268 4.8 9.7 0.00 0.00 0.00 49 1018.3
20260508170034 18 91 1.6 12.9 0.00 0.00 0.00 49 1018.4
20260508164535 18 246 3.2 14.5 0.00 0.00 0.00 51 1018.7
20260508163031 18 0 3.2 11.3 0.00 0.00 0.00 50 1018.8
20260508161533 18 198 4.8 12.9 0.00 0.00 0.00 51 1019.2
20260508160033 17 0 0.0 8.0 0.00 0.00 0.00 56 1019.2
20260508154534 18 94 1.6 8.0 0.00 0.00 0.00 53 1019.3
20260508153044 18 0 3.2 8.0 0.00 0.00 0.00 53 1019.5
20260508151532 17 242 1.6 9.7 0.00 0.00 0.00 52 1019.5
20260508150034 17 56 4.8 14.5 0.00 0.00 0.00 53 1019.6
20260508144532 17 0 0.0 11.3 0.00 0.00 0.00 52 1019.4
20260508143037 17 0 1.6 9.7 0.00 0.00 0.00 53 1019.5
20260508141533 17 43 3.2 8.0 0.00 0.00 0.00 55 1019.6
20260508140037 16 0 3.2 11.3 0.00 0.00 0.00 55 1019.9
20260508134533 16 32 1.6 6.4 0.00 0.00 0.00 56 1020.1
20260508133043 15 44 0.0 4.8 0.00 0.00 0.00 62 1019.9
20260508131532 13 0 0.0 3.2 0.00 0.00 0.00 72 1019.8
20260508130035 13 58 0.0 3.2 0.00 0.00 0.00 86 1019.5
20260508124535 12 0 0.0 0.0 0.00 0.00 0.00 91 1019.2
20260508123050 11 0 0.0 0.0 0.00 0.00 0.00 94 1019.0
20260508121532 10 0 0.0 0.0 0.00 0.00 0.00 94 1018.9
20260508120031 8 0 0.0 0.0 0.00 0.00 0.00 94 1018.5
20260508114531 7 0 0.0 0.0 0.00 0.00 0.00 93 1018.4
20260508113034 7 0 0.0 0.0 0.00 0.00 0.00 93 1018.1
20260508111532 -17 0.0 0.0 0.00 0.00 0.00 1017.8
20260508110035 -17 0.0 0.0 0.00 0.00 0.00 1017.5
20260508104533 -17 0.0 0.0 0.00 0.00 0.00 1017.3
20260508103030 -17 0.0 0.0 0.00 0.00 0.00 1017.2
20260508101532 -17 0.0 0.0 0.00 0.00 0.00 1017.0
20260508100033 -17 0.0 0.0 0.00 0.00 0.00 1016.6
20260508094533 -17 0.0 0.0 0.00 0.00 0.00 1016.4
20260508093034 -17 0.0 0.0 0.00 0.00 0.00 1016.2
20260508091532 -17 0.0 0.0 0.00 0.00 0.00 1016.3
20260508090036 -17 0.0 0.0 0.00 0.00 0.00 1016.2
20260508084535 -17 0.0 0.0 0.00 0.00 0.00 1016.2
20260508083031 -17 0.0 0.0 0.00 0.00 0.00 1016.3
20260508081534 -17 0.0 0.0 0.00 0.00 0.00 1016.1
20260508080032 -17 0.0 0.0 0.00 0.00 0.00 1016.1
20260508074536 -17 0.0 0.0 0.00 0.00 0.00 1016.2
20260508073034 -17 0.0 0.0 0.00 0.00 0.00 1016.1
20260508071534 -17 0.0 0.0 0.00 0.00 0.00 1016.1
20260508070032 -17 0.0 0.0 0.00 0.00 0.00 1016.2
20260508064535 -17 0.0 0.0 0.00 0.00 0.00 1015.8
20260508063035 -17 0.0 0.0 0.00 0.00 0.00 1015.8
20260508061534 -17 0.0 0.0 0.00 0.00 0.00 1015.6
20260508060032 -17 0.0 0.0 0.00 0.00 0.00 1015.6
20260508054538 -17 0.0 0.0 0.00 0.00 0.00 1015.4
20260508053032 -17 0.0 0.0 0.00 0.00 0.00 1015.8
20260508051535 -17 0.0 0.0 0.00 0.00 0.00 1015.7
20260508050034 -17 0.0 0.0 0.00 0.00 0.00 1015.7
20260508044534 -17 0.0 0.0 0.00 0.00 0.00 1015.4
20260508043031 -17 0.0 0.0 0.00 0.00 0.00 1015.3
20260508041532 -17 0.0 0.0 0.00 0.00 0.00 1015.3
20260508040036 -17 0.0 0.0 0.00 0.00 0.00 1015.2
20260508034543 -17 0.0 0.0 0.00 0.00 0.00 1015.3
20260508033035 -17 0.0 0.0 0.00 0.00 0.00 1015.4